GMART KSDF-KFFT

Flight info

Callsign GMART
Flight time 0h 25m
Altitude 2500
Route KSDF / IIU VOR / KFFT
Aircraft C172/L-VGD/C

Departure

Time 2026-04-27 10:22
Airport Louisville Muhammad Ali International Airport (KSDF)

Arrival

Time 2026-04-27 10:48
Airport Capital City Airport (KFFT)
Time Latitude Longitude Altitude Speed Heading
2026-04-27 10:14 38.17601 -85.72402 487 ft 0 kts 252°
2026-04-27 10:18 38.17601 -85.72403 487 ft 2 kts 250°
2026-04-27 10:18 38.17559 -85.72463 486 ft 13 kts 168°
2026-04-27 10:18 38.17466 -85.72430 484 ft 16 kts 161°
2026-04-27 10:18 38.17413 -85.72371 482 ft 6 kts 145°
2026-04-27 10:19 38.17407 -85.72366 479 ft 0 kts 156°
2026-04-27 10:19 38.17398 -85.72361 482 ft 3 kts 164°
2026-04-27 10:19 38.17391 -85.72360 479 ft 0 kts 177°
2026-04-27 10:20 38.17381 -85.72361 481 ft 4 kts 188°
2026-04-27 10:20 38.17338 -85.72378 481 ft 9 kts 209°
2026-04-27 10:20 38.17321 -85.72438 481 ft 7 kts 291°
2026-04-27 10:21 38.17322 -85.72442 481 ft 0 kts 290°
2026-04-27 10:21 38.17327 -85.72459 480 ft 15 kts 291°
2026-04-27 10:21 38.17433 -85.72802 483 ft 66 kts 291°
2026-04-27 10:22 38.17630 -85.73451 603 ft 83 kts 290°
2026-04-27 10:22 38.17827 -85.74168 787 ft 88 kts 288°
2026-04-27 10:22 38.18035 -85.74931 979 ft 94 kts 288°
2026-04-27 10:22 38.18212 -85.75755 1177 ft 99 kts 283°
2026-04-27 10:23 38.18393 -85.76610 1385 ft 100 kts 281°
2026-04-27 10:23 38.18140 -85.77302 1594 ft 90 kts 194°
2026-04-27 10:23 38.17547 -85.77559 1808 ft 91 kts 193°
2026-04-27 10:23 38.16947 -85.77843 2019 ft 92 kts 193°
2026-04-27 10:24 38.16378 -85.77760 2218 ft 85 kts 144°
2026-04-27 10:24 38.15929 -85.77281 2418 ft 86 kts 122°
2026-04-27 10:24 38.15673 -85.76567 2501 ft 96 kts 121°
2026-04-27 10:24 38.15357 -85.75750 2511 ft 108 kts 121°
2026-04-27 10:25 38.15040 -85.74862 2511 ft 112 kts 115°
2026-04-27 10:25 38.14770 -85.73922 2513 ft 114 kts 115°
2026-04-27 10:25 38.14489 -85.72972 2512 ft 116 kts 115°
2026-04-27 10:25 38.14203 -85.72011 2511 ft 117 kts 115°
2026-04-27 10:26 38.13915 -85.71039 2508 ft 118 kts 115°
2026-04-27 10:26 38.13765 -85.70527 2507 ft 118 kts 115°
2026-04-27 10:26 38.13644 -85.70121 2509 ft 118 kts 115°
2026-04-27 10:27 38.13363 -85.69135 2509 ft 119 kts 112°
2026-04-27 10:27 38.13099 -85.68140 2512 ft 119 kts 112°
2026-04-27 10:27 38.12833 -85.67147 2504 ft 118 kts 112°
2026-04-27 10:27 38.12575 -85.66174 2536 ft 116 kts 112°
2026-04-27 10:28 38.12320 -85.65200 2535 ft 116 kts 112°
2026-04-27 10:28 38.12065 -85.64229 2537 ft 116 kts 112°
2026-04-27 10:28 38.11805 -85.63259 2538 ft 116 kts 112°
2026-04-27 10:28 38.11543 -85.62290 2537 ft 116 kts 112°
2026-04-27 10:29 38.11283 -85.61318 2536 ft 117 kts 112°
2026-04-27 10:29 38.11021 -85.60339 2538 ft 117 kts 112°
2026-04-27 10:29 38.10757 -85.59359 2540 ft 118 kts 112°
2026-04-27 10:29 38.10491 -85.58379 2538 ft 118 kts 112°
2026-04-27 10:30 38.10471 -85.57349 2538 ft 122 kts 79°
2026-04-27 10:30 38.10567 -85.56294 2540 ft 120 kts 92°
2026-04-27 10:30 38.10634 -85.55229 2543 ft 122 kts 90°
2026-04-27 10:30 38.10706 -85.54156 2543 ft 123 kts 90°
2026-04-27 10:31 38.10778 -85.53075 2543 ft 123 kts 90°
2026-04-27 10:31 38.10848 -85.52012 2544 ft 119 kts 90°
2026-04-27 10:31 38.10917 -85.50975 2540 ft 117 kts 90°
2026-04-27 10:31 38.10983 -85.49943 2541 ft 118 kts 90°
2026-04-27 10:32 38.11051 -85.48915 2539 ft 115 kts 90°
2026-04-27 10:32 38.11117 -85.47914 2538 ft 113 kts 90°
2026-04-27 10:32 38.11180 -85.46926 2538 ft 114 kts 89°
2026-04-27 10:32 38.11245 -85.45926 2541 ft 113 kts 90°
2026-04-27 10:33 38.11312 -85.44932 2545 ft 113 kts 90°
2026-04-27 10:33 38.11378 -85.43940 2545 ft 112 kts 90°
2026-04-27 10:33 38.11443 -85.42953 2545 ft 112 kts 90°
2026-04-27 10:33 38.11511 -85.41961 2540 ft 112 kts 89°
2026-04-27 10:34 38.11580 -85.40997 2545 ft 107 kts 89°
2026-04-27 10:34 38.11641 -85.40061 2544 ft 107 kts 90°
2026-04-27 10:34 38.11697 -85.39105 2549 ft 109 kts 90°
2026-04-27 10:34 38.11757 -85.38134 2554 ft 111 kts 90°
2026-04-27 10:35 38.11822 -85.37153 2555 ft 112 kts 89°
2026-04-27 10:35 38.11880 -85.36160 2557 ft 113 kts 89°
2026-04-27 10:35 38.11932 -85.35161 2559 ft 114 kts 90°
2026-04-27 10:35 38.11996 -85.34156 2555 ft 114 kts 88°
2026-04-27 10:36 38.12064 -85.33151 2562 ft 114 kts 89°
2026-04-27 10:36 38.12130 -85.32137 2560 ft 116 kts 89°
2026-04-27 10:36 38.12197 -85.31100 2551 ft 117 kts 89°
2026-04-27 10:36 38.12263 -85.30096 2551 ft 111 kts 88°
2026-04-27 10:37 38.12330 -85.29106 2554 ft 117 kts 89°
2026-04-27 10:37 38.12397 -85.28104 2551 ft 111 kts 89°
2026-04-27 10:37 38.12464 -85.27138 2548 ft 109 kts 89°
2026-04-27 10:37 38.12527 -85.26160 2560 ft 114 kts 90°
2026-04-27 10:38 38.12594 -85.25165 2548 ft 111 kts 89°
2026-04-27 10:38 38.12662 -85.24188 2560 ft 113 kts 89°
2026-04-27 10:38 38.12731 -85.23188 2559 ft 115 kts 89°
2026-04-27 10:38 38.12798 -85.22182 2556 ft 114 kts 89°
2026-04-27 10:39 38.12863 -85.21194 2576 ft 113 kts 88°
2026-04-27 10:39 38.12924 -85.20163 2564 ft 118 kts 88°
2026-04-27 10:39 38.12990 -85.19133 2567 ft 117 kts 89°
2026-04-27 10:39 38.13058 -85.18084 2557 ft 118 kts 89°
2026-04-27 10:40 38.13115 -85.17062 2552 ft 114 kts 89°
2026-04-27 10:40 38.13181 -85.16086 2550 ft 109 kts 89°
2026-04-27 10:40 38.13242 -85.15098 2446 ft 114 kts 88°
2026-04-27 10:40 38.13294 -85.14080 2361 ft 117 kts 89°
2026-04-27 10:41 38.13337 -85.12996 2268 ft 126 kts 89°
2026-04-27 10:41 38.13378 -85.11893 2163 ft 123 kts 89°
2026-04-27 10:41 38.13410 -85.10815 2066 ft 122 kts 89°
2026-04-27 10:41 38.13456 -85.09735 1972 ft 122 kts 89°
2026-04-27 10:42 38.13506 -85.08660 1868 ft 121 kts 88°
2026-04-27 10:42 38.13545 -85.07641 1861 ft 111 kts 89°
2026-04-27 10:42 38.13585 -85.06681 1857 ft 106 kts 89°
2026-04-27 10:42 38.13622 -85.05753 1856 ft 106 kts 89°
2026-04-27 10:43 38.13655 -85.04834 1861 ft 101 kts 88°
2026-04-27 10:43 38.13686 -85.03950 1846 ft 98 kts 86°
2026-04-27 10:43 38.13779 -85.03123 1852 ft 93 kts 83°
2026-04-27 10:43 38.13919 -85.02337 1851 ft 89 kts 77°
2026-04-27 10:44 38.14096 -85.01602 1859 ft 89 kts 75°
2026-04-27 10:44 38.14315 -85.00858 1855 ft 90 kts 71°
2026-04-27 10:44 38.14576 -85.00139 1855 ft 90 kts 69°
2026-04-27 10:44 38.14843 -84.99419 1866 ft 91 kts 69°
2026-04-27 10:45 38.15126 -84.98669 1857 ft 94 kts 69°
2026-04-27 10:45 38.15407 -84.97928 1845 ft 93 kts 68°
2026-04-27 10:45 38.15641 -84.97173 1683 ft 95 kts 73°
2026-04-27 10:45 38.15934 -84.96408 1584 ft 96 kts 65°
2026-04-27 10:46 38.16232 -84.95707 1493 ft 88 kts 64°
2026-04-27 10:46 38.16514 -84.95002 1326 ft 91 kts 67°
2026-04-27 10:46 38.16784 -84.94276 1365 ft 83 kts 64°
2026-04-27 10:46 38.17028 -84.93654 1235 ft 77 kts 70°
2026-04-27 10:47 38.17255 -84.93052 1114 ft 76 kts 64°
2026-04-27 10:47 38.17497 -84.92432 1057 ft 80 kts 66°
2026-04-27 10:47 38.17742 -84.91806 946 ft 77 kts 69°
2026-04-27 10:47 38.17965 -84.91233 825 ft 63 kts 69°
2026-04-27 10:48 38.18113 -84.90821 804 ft 42 kts 63°
2026-04-27 10:48 38.18200 -84.90601 800 ft 22 kts 63°
2026-04-27 10:48 38.18261 -84.90453 798 ft 14 kts 65°
2026-04-27 10:48 38.18225 -84.90396 797 ft 6 kts 154°
2026-04-27 10:49 38.18217 -84.90391 797 ft 0 kts 154°
2026-04-27 10:49 38.18197 -84.90381 797 ft 8 kts 179°
2026-04-27 10:49 38.18172 -84.90433 798 ft 9 kts 269°
2026-04-27 10:50 38.18147 -84.90510 799 ft 10 kts 242°
2026-04-27 10:50 38.18108 -84.90569 800 ft 8 kts 173°
2026-04-27 10:50 38.18095 -84.90521 800 ft 7 kts 65°
2026-04-27 10:50 38.18117 -84.90463 799 ft 8 kts 64°
2026-04-27 10:51 38.18119 -84.90402 798 ft 3 kts 158°
2026-04-27 10:51 38.18119 -84.90401 798 ft 0 kts 158°